Location: Azul
(36.7830°S, 59.8500°W)
Time: 00:48:15
(UTC-03:00)

FO-29 - Visible Passes

Search period start: 23 October 2021 00:00
Search period end: 02 November 2021 00:00
Orbit: 800 x 1321 km, 98.6° (Epoch: 22 October)

Date Brightness Start Highest point End Pass type
(mag) Time Alt. Az. Time Alt. Az. Time Alt. Az.
23 Oct 12.2 00:17:36 10° SSW 00:21:13 15° WSW 00:24:40 11° W visible
23 Oct 10.3 21:35:07 10° SSE 21:42:13 46° E 21:42:38 46° ENE visible
23 Oct 11.2 23:20:27 10° S 23:26:57 36° WSW 23:29:08 30° W visible
24 Oct 11.3 20:41:55 10° SE 20:46:48 18° E 20:47:07 18° E visible
24 Oct 10.0 22:24:50 10° S 22:32:18 82° WSW 22:33:37 65° NNW visible
25 Oct 12.2 00:12:14 10° SSW 00:16:19 16° WSW 00:20:07 11° W visible
25 Oct 10.3 21:30:09 10° SSE 21:37:16 43° E 21:38:05 42° ENE visible
25 Oct 11.1 23:15:20 10° S 23:22:03 38° WSW 23:24:35 31° WNW visible
26 Oct 11.4 20:37:09 10° SE 20:41:48 17° E 20:42:33 17° E visible
26 Oct 10.0 22:19:48 10° SSE 22:27:22 87° WSW 22:29:04 60° NNW visible
27 Oct 12.1 00:06:56 10° SSW 00:11:26 17° WSW 00:15:33 11° W visible
27 Oct 10.4 21:25:12 10° SSE 21:32:19 41° E 21:33:31 39° ENE visible
27 Oct 11.0 23:10:14 10° S 23:17:08 41° WSW 23:20:01 31° WNW visible
28 Oct 11.4 20:32:27 10° SE 20:36:47 16° E 20:37:59 15° E visible
28 Oct 10.0 22:14:47 10° SSE 22:22:27 89° ENE 22:24:29 56° NNW visible
29 Oct 12.1 00:01:41 10° SSW 00:06:32 19° WSW 00:10:58 11° W visible
29 Oct 10.5 21:20:16 10° SSE 21:27:22 38° E 21:28:56 35° ENE visible
29 Oct 11.0 23:05:10 10° S 23:12:15 44° WSW 23:15:26 30° WNW visible
30 Oct 11.5 20:27:48 10° ESE 20:31:47 15° E 20:33:23 14° ENE visible
30 Oct 10.0 22:09:47 10° SSE 22:17:32 84° ENE 22:19:53 51° N visible
30 Oct 12.0 23:56:29 10° SSW 00:01:39 20° WSW 00:06:23 12° W visible
31 Oct 10.6 21:15:22 10° SSE 21:22:24 36° E 21:24:20 32° ENE visible
31 Oct 10.9 23:00:06 10° S 23:07:21 46° WSW 23:10:49 30° WNW visible
01 Nov 11.6 20:23:14 10° ESE 20:26:46 13° E 20:28:46 12° ENE visible
01 Nov 10.0 22:04:48 10° SSE 22:12:37 80° ENE 22:15:16 47° N visible
